LiveATC.Net - Listen to live air traffic control over the Internet!


ICAO: KMTW  IATA: MTW   Airport: Manitowoc County Airport
City: Manitowoc   State/Province: Wisconsin
Country: United States   Continent: North America
KMTW METAR Weather: KMTW 060722Z AUTO 03005KT 10SM FEW008 OVC015 17/16 A2997 RMK AO2
KMTW Flight Activity (FlightAware)
KMTW Airport Info   (iFlightPlanner)
KMTW VFR Sectional Chart   (iFlightPlanner) 
KMTW IFR Low Altitude Chart   (iFlightPlanner) 
KMTW IFR High Altitude Chart   (iFlightPlanner) 

KMTW CTAF
Feed Status: UP   Listeners: 0
Listen in your browser - HTML5 player (in browser, HTML5)
Click here to listen with your own player (launches your MP3 player)
Archive Access: KMTW CTAF
FacilityFrequency
Manitowoc CTAF122.800

NOTICE

Unauthorized use prohibited. See LiveATC.net Terms of Service


Airport/ARTCC Code
Frequency Search
(e.g., 124.400, 128.75)
Site-wide search
 


Browse Feeds
Top 50 Feeds
HF Oceanic Feeds
Coverage Map
Bad Weather Areas

LiveATC FAQ
Offer LiveATC feed
Contact LiveATC.net
Press Inquiries

LiveATC on iPhone
LiveATC on Android

LiveATC Mobile
(Mobile browser)

ATC Audio Archives
Interesting Recordings

LiveATC Forums


Home Page
About LiveATC.net


Terms of Use
Privacy Policy

AIRMETs/SIGMETs

FAA Airport Status
NAS Status
Arrival Demand


Server Software By:
Icecast.org
Liquidsoap